Volver al catálogo

GAOFEN 11

ActivoCienciaSSO
NORAD 43585·PAYLOAD·🇨🇳 China

Lanzado Jul 31, 2018 desde Taiyuan Satellite Launch Center

Loading…

Próximos Pases (próximas 24 horas)

TLE

ActualizadoSource: Space-Track

Época: Sep 14, 2026, 22:05 UTC

1 43585U 18063A   26257.92043461  .00012243  00000-0  16650-3 0  9997
2 43585  97.1193 324.6523 0003779  25.1993 334.9448 15.57716297454308

Sigue GAOFEN 11 en tiempo real con AllMySat

Download on the App Store